Location: Borojevi?i
(45.0486°N, 16.2297°E)
Time: 10:35:39
(UTC+00:00)

Cosmos 1656 - Pass Details

Date: 08 August 2020
Orbit: 798 x 849 km, 71.1° (Epoch: 20 September)

Event Time Altitude Azimuth Distance (km) Brightness Sun altitude
Rises 19:20:42 0° 332° (NNW) 3,327 8.1 -11.4°
Reaches altitude 10° 19:23:07 10° 331° (NNW) 2,398 7.2 -11.7°
Maximum altitude 19:28:35 74° 248° (WSW) 850 3.8 -12.5°
Enters shadow 19:33:41 12° 164° (SSE) 2,265 5.5 -13.2°
